NOAA 16 DEB, 41362

Orbit data source: Space-Track

NOAA 16 DEB, 41362 is space debris in SSO originally from a launch on Thu, 21 Sep 2000 UTC launched from the Air Force Western Test Range (AFWTR). Debris objects in space refer to the collection of defunct objects orbiting the Earth. Examples of debris include non-operational satellites, rocket bodies, and fragments generated from explosions, collisions, or faulty payload assembly.

Loading next visibility...
Identifier
41362, 2000-055JF
Orbit
SSO
Country
Flag of USUS
Related business
Manufacturer
Unknown
Mission
Spacecraft
Bus & Motor
Unknown
Mass
Unknown
Launch date (UTC)
2000-09-21 (25 years ago)
Launch vehicle
Unknown
Launch site
Air Force Western Test Range (AFWTR)
Object type
Payload
Rocket body
Debris
Shape & HBR
Unknown shape, 0.1 m
Radar Cross Section
Small (<0.1 m²)

Expand to show TLE details & history
Last TLE update: 15 hours ago

TLE from 15 hours ago
0 NOAA 16 DEB
1 41362U 00055JF  25346.81723272  .00017001  00000-0  37310-2 0  9993
2 41362  98.9594 192.1631 0031222 222.9644 136.9114 14.57351439515675
Epoch: 2025-12-12T19:36Z
TLE epoch observation values (Epoch: 2025-12-12T19:36:48.907Z)
Latitude
0.00006°
Longitude
176.2059°
Altitude
720.875 km
Speed
7.486 km/s
True Right ascension
12h 48m 39s
True Declination
0° 00' 00"
Sunlit
Object was in daylight at epoch
Visualization orbit readout
Latitude
Unknown
Longitude
Unknown
Altitude
Unknown
Speed
Unknown
Apparent Right ascension
Unknown
Apparent Declination
Unknown
Sunlit
N/A
Visualization observer readout
Local Sidereal Time
09:17:36
Azimuth
Unknown
Elevation
Unknown
Doppler factor
Unknown
Orbital elements
Apogee altitude
720.956 km
Perigee altitude
676.764 km
Semi-major axis
7,076.997 km
Eccentricity
0.00312
Inclination
98.9594°
RAAN
192.1631°
Arg. of periapsis
222.9644°
True anomaly
137.15511°
Mean anomaly
136.9114°
Eccentric anomaly
137.03333°
Mean motion
3.64561 °/min
Orbital period
98.75 mins
BSTAR
0.003731
Loading maneuver chart data...
Computing Atmospheric mass density...
Loading historical data...
Loading historical data...
Loading historical data...
Loading historical data...
Loading historical data...
Loading historical data...
Loading historical data...

Documentation

Showing up to 5 results
|